Flag for Switzerland Weather past 2 weeks in Basel, Basel-Stadt, Switzerland

Now
58 °F

Overcast.


Feels Like: 57 °F
Forecast: 40 / 65 °F
Wind: 7 mph from North

Location: Bale-Mulhouse

Current Time: May 26, 2015 at 6:34:36 PM

Latest Report: May 26, 2015 at 5:00 PM


Visibility: 9 mi

Pressure: 30.10 "Hg

Humidity: 70%

Dew point: 49 °F

Location of BaselLocation

Historic Weather in Basel — Graph

°F

Basel temperature yesterday

Maximum temperature yesterday: 71 °F (at 4:00 PM)
Minimum temperature yesterday: 54 °F (at 4:00 AM)
Average temperature yesterday: 61 °F

Past Weeks' High & Low Weather Summary

 TemperatureHumidityPressure
High87 °F (May 12, 4:00 PM)98% (May 16, 6:00 AM)30.35 "Hg (May 16, 6:00 AM)
Low39 °F (May 22, 5:00 AM)24% (May 12, 4:00 PM)29.75 "Hg (May 18, 8:00 PM)
Average59 °F70%30.06 "Hg
* Reported May 11 5:00 PM — May 26 5:00 PM, Basel, Weather by CustomWeather, © 2015

Note: Actual official high and low records may vary slightly from our data, if they occured in-between our weather recording intervals... More about our weather records

Advertising

Basel weather history for previous 24 hours

 ConditionsComfort  
Time TempWeatherWind HumidityBarometerVisibility
5:00 PM
Tue, May 26
58 °FOvercast.7 mph70%30.10 "Hg9 mi
4:00 PM57 °FOvercast.10 mph75%30.10 "Hg6 mi
3:00 PM56 °FOvercast.12 mph81%30.10 "Hg6 mi
2:00 PM57 °FOvercast.9 mph80%30.09 "Hg6 mi
1:00 PM56 °FLow clouds.9 mph81%30.08 "Hg6 mi
12:00 PM56 °FSprinkles. Overcast.8 mph87%30.07 "Hg4 mi
11:00 AM56 °FOvercast.7 mph82%30.06 "Hg9 mi
10:00 AM54 °FOvercast.7 mph85%30.05 "Hg9 mi
9:00 AM55 °FOvercast.7 mph82%30.04 "Hg12 mi
8:00 AM55 °FOvercast.6 mph85%30.02 "Hg12 mi
7:00 AM54 °FOvercast.5 mph90%30.01 "Hg12 mi
6:00 AM54 °FOvercast.7 mph89%29.99 "Hg12 mi
5:00 AM54 °FOvercast.2 mph93%29.99 "Hg12 mi
4:00 AM55 °FOvercast.1 mph92%29.98 "Hg25 mi
3:00 AM55 °FOvercast.No wind88%29.98 "Hg34 mi
2:00 AM55 °FOvercast.1 mph89%29.98 "Hg34 mi
1:00 AM55 °FOvercast.3 mph87%29.99 "Hg34 mi
12:00 AM55 °FOvercast.No wind90%29.99 "Hg19 mi
10:00 PM
Mon, May 25
55 °FOvercast.2 mph93%29.98 "Hg16 mi
9:00 PM56 °FOvercast.2 mph87%29.96 "Hg16 mi
8:00 PM58 °FSprinkles. Overcast.7 mph82%29.96 "Hg9 mi
7:00 PM61 °FSprinkles. Overcast.10 mph70%29.95 "Hg12 mi
6:00 PM64 °FOvercast.15 mph57%29.93 "Hg19 mi
Weather by CustomWeather, © 2015

See weather overviewHow to use our weather pages